Theta_e
311 310 311 310 311 311 311 311 311 311 311 311 311 311 311 311 311 307 301 309 311 318 320 312 306 306 309 312 307 305 296 293 296 296 300 304 305 307 309 313 317 320 320 322 325
310 310 310 310 310 310 310 310 310 311 311 311 311 310 310 310 300 300 309 314 315 315 311 308 304 305 303 310 307 300 296 296 300 300 302 302 302 303 308 311 314 318 317 323 325
310 310 310 310 310 310 310 310 310 310 311 311 310 309 310 304 295 297 310 311 312 309 307 311 309 304 302 307 305 298 297 301 301 302 302 301 300 303 305 305 311 313 315 319 322
310 310 310 309 309 310 310 310 310 310 311 310 309 309 308 291 277 296 310 310 309 304 302 303 301 299 298 300 307 296 298 302 304 302 300 299 302 301 304 308 309 311 317 320 320
308 309 309 309 309 309 309 310 310 310 310 308 308 308 296 283 284 298 307 304 299 299 297 300 297 296 295 295 302 301 301 300 302 302 301 302 300 301 301 304 311 314 315 319 320
308 308 309 309 308 309 309 310 310 309 307 308 308 306 290 278 293 298 299 299 297 296 295 299 295 298 296 294 295 295 304 304 301 301 302 300 300 300 303 306 317 313 314 316 320
308 308 308 308 308 309 309 310 309 307 306 308 307 299 288 283 297 297 297 297 297 296 294 297 297 297 297 293 295 294 299 301 304 302 301 302 298 297 303 309 310 317 317 314 316
307 308 308 307 308 309 309 308 306 306 307 308 306 294 282 293 295 298 295 293 296 299 297 298 300 298 297 298 294 293 296 292 298 302 303 301 296 301 303 302 304 310 317 318 316
307 307 307 308 308 308 306 305 304 307 307 307 295 289 282 298 293 294 293 291 293 294 297 299 298 294 296 289 286 292 284 289 293 302 302 299 295 302 304 300 301 304 312 318 319
308 307 307 308 308 305 304 302 300 299 295 299 296 282 287 286 291 293 293 293 290 291 288 293 292 288 289 288 278 283 286 287 289 296 299 297 296 301 303 299 300 301 306 313 318
307 307 308 308 306 304 296 288 285 282 287 283 283 284 286 290 293 291 293 290 289 286 280 286 281 279 283 287 288 286 284 283 286 291 292 295 297 300 303 299 297 297 300 302 313
308 308 307 307 305 302 292 287 286 288 281 287 287 287 289 290 285 288 293 284 283 279 284 279 275 281 285 286 286 288 284 283 286 290 290 291 293 297 301 302 301 299 299 300 301
309 309 307 306 301 294 290 288 294 292 279 282 285 286 288 289 285 286 289 285 280 278 279 276 278 283 281 282 282 283 284 285 284 288 288 287 287 291 298 301 303 303 302 301 302
309 309 306 303 292 289 287 293 293 287 265 275 281 286 289 288 282 290 291 285 282 278 278 277 280 280 279 278 283 278 287 288 287 284 279 287 279 287 294 297 300 303 303 303 303
309 307 302 299 288 288 291 294 290 283 257 278 280 290 286 282 283 284 290 285 280 280 279 276 278 281 279 279 283 281 286 286 286 284 282 283 280 283 291 291 296 301 304 302 305
308 305 302 294 291 291 293 289 284 266 257 269 279 280 280 282 282 285 284 287 285 282 281 279 284 283 282 285 285 286 284 282 284 284 277 281 280 280 286 290 294 299 303 305 304
307 303 297 295 288 292 288 281 267 261 271 269 270 279 278 278 279 281 280 277 276 267 264 275 278 281 285 280 283 283 277 270 271 273 272 281 279 282 288 290 294 296 299 304 306
304 300 297 294 291 288 283 272 259 259 261 277 278 278 272 275 277 277 277 272 276 276 271 267 267 278 282 280 277 279 278 271 266 269 273 281 277 281 289 292 294 292 293 299 299
300 289 289 291 291 286 276 261 264 264 275 277 277 267 262 273 273 273 270 269 276 279 272 272 270 280 281 282 281 276 277 281 276 276 274 276 280 285 287 289 291 291 292 293 293
289 286 287 293 288 281 269 268 264 277 279 279 269 271 260 261 268 267 265 271 274 282 283 274 270 278 282 284 282 279 281 274 276 267 268 275 276 278 282 286 289 290 292 291 294
286 279 291 293 285 274 264 262 267 278 280 278 274 270 269 265 266 260 263 270 277 280 281 276 275 274 277 276 277 279 277 275 279 276 270 271 274 281 283 285 288 289 291 292 293
280 271 289 287 271 269 264 266 279 278 279 277 278 278 274 272 265 268 264 271 281 281 273 276 274 270 271 279 283 281 279 279 271 271 277 275 275 285 285 285 287 288 289 289 290
275 275 288 284 265 262 268 273 278 277 279 276 275 279 278 275 268 272 273 279 282 279 271 272 268 262 267 271 281 278 280 282 280 277 273 271 274 284 285 285 286 286 286 285 286
277 271 274 275 267 266 264 264 268 280 278 280 276 277 277 276 277 268 274 279 282 281 284 283 272 268 263 265 268 271 276 280 279 274 274 275 277 281 284 285 286 284 284 284 284
278 271 270 265 267 268 271 272 272 272 275 279 277 276 275 266 273 273 276 277 279 282 280 277 266 267 272 274 274 273 273 275 275 278 275 277 277 282 284 285 285 284 282 283 282
277 274 277 270 274 273 274 269 273 274 274 271 274 277 276 270 273 272 275 275 275 277 277 275 266 268 269 274 275 274 274 275 278 279 279 279 278 284 285 284 283 283 283 283 283
281 281 279 274 273 269 265 271 274 276 278 278 278 276 276 277 279 280 279 279 278 276 277 275 269 265 260 274 273 265 272 275 277 279 279 276 280 284 282 284 284 283 283 283 282
Wind_Speed
14 14 13 13 14 15 16 17 17 18 19 21 21 22 22 23 16 8 8 10 12 20 14 8 6 6 3 3 1 3 4 4 6 7 5 1 0 0 1 3 1 2 2 2 17
14 15 16 15 14 15 15 15 16 17 18 19 21 23 22 20 3 7 11 17 18 20 7 7 6 8 1 2 2 3 5 10 7 5 4 1 2 2 1 1 3 2 5 11 16
15 15 15 14 14 15 14 14 15 16 17 19 19 21 23 9 2 4 18 18 14 15 5 2 3 2 2 0 3 4 6 6 5 5 2 2 2 2 3 2 5 5 6 12 13
13 15 16 17 16 16 15 14 14 15 17 17 17 18 19 2 2 3 19 17 14 9 7 5 4 1 2 4 3 3 5 5 5 7 5 3 2 2 4 3 3 3 8 14 17
12 12 13 15 16 16 15 15 15 15 16 17 16 14 7 5 3 7 17 11 5 7 6 5 5 3 2 4 4 3 3 4 4 6 6 2 5 4 5 5 2 1 10 15 15
12 12 14 16 17 17 17 17 17 16 16 14 11 7 4 4 5 8 9 6 6 5 6 6 3 2 2 3 3 5 5 5 3 3 2 5 4 5 4 1 2 5 8 10 14
13 13 14 16 16 17 17 18 18 18 12 7 5 3 3 1 4 8 7 3 5 2 3 3 4 4 3 6 5 5 6 4 5 4 4 3 8 7 7 4 4 5 6 7 11
14 15 15 16 16 16 16 19 19 10 6 4 5 3 2 3 5 5 8 6 7 2 3 5 3 1 1 5 7 2 1 4 3 9 5 9 16 13 10 7 10 8 7 8 12
11 12 14 16 17 18 20 19 7 7 6 4 5 4 3 6 5 7 4 5 7 5 3 4 1 2 1 2 4 3 3 5 7 6 5 11 4 11 8 10 12 9 8 9 9
10 11 12 14 15 18 22 7 7 4 6 2 1 3 5 6 5 6 4 3 4 7 5 5 3 2 2 4 4 3 4 3 4 2 4 9 11 10 3 11 16 13 12 10 10
7 9 11 13 14 15 10 5 9 7 10 2 7 4 6 8 5 4 4 4 4 5 4 4 4 3 8 7 6 4 3 5 4 12 7 9 16 17 13 5 9 8 9 11 13
6 7 9 12 10 13 5 7 2 2 7 3 5 4 5 2 4 6 5 5 4 3 3 5 2 3 6 6 5 7 11 9 6 9 3 9 15 12 16 12 12 15 13 11 7
8 6 6 6 5 6 6 3 4 2 1 6 4 4 5 1 3 6 4 2 3 3 2 2 3 7 2 3 3 9 8 7 9 10 7 7 18 17 9 14 12 13 12 12 12
7 4 4 5 6 1 3 5 2 3 7 9 6 2 3 3 3 4 2 1 1 1 1 4 4 3 3 4 4 6 4 2 8 5 7 3 11 11 22 21 17 18 14 15 13
4 3 7 7 5 4 3 3 2 5 7 8 7 4 8 2 4 1 1 2 2 2 3 6 2 2 3 4 6 4 2 3 6 8 4 15 8 5 10 18 20 19 17 15 17
5 8 7 4 3 1 2 3 5 11 5 8 4 5 7 4 5 7 3 3 0 2 4 8 3 4 5 3 2 4 2 4 1 4 10 14 11 6 7 9 8 17 19 18 17
10 10 5 2 1 2 3 5 9 8 5 10 5 4 3 4 6 5 5 4 1 5 5 5 5 3 4 2 3 5 4 2 4 7 16 11 12 22 2 2 5 8 10 16 16
13 9 6 3 3 2 4 8 9 4 7 4 4 5 3 6 3 6 5 4 4 1 1 0 10 6 4 9 6 9 8 5 9 6 5 8 13 9 6 12 12 4 5 5 6
11 3 3 4 4 3 7 7 9 8 3 4 5 5 7 3 1 5 1 3 3 2 2 3 7 5 6 3 8 4 9 8 7 6 4 5 11 9 1 4 3 2 3 4 4
4 3 2 5 3 5 7 4 4 5 2 1 2 2 3 5 5 5 2 5 3 2 2 5 8 3 2 3 7 6 1 4 4 6 6 5 10 11 2 7 4 6 5 1 6
4 4 1 4 4 7 4 7 6 6 4 4 4 3 6 3 3 2 5 7 4 3 3 3 6 5 4 6 8 5 5 5 3 8 4 3 6 2 6 5 8 7 4 4 8
3 3 3 2 6 2 2 6 4 4 3 3 2 5 6 5 3 4 6 8 2 1 3 3 3 6 11 6 3 6 9 10 7 8 5 13 13 2 3 7 6 2 4 5 4
3 2 1 4 2 2 4 5 4 4 5 5 4 6 3 4 2 6 5 7 5 3 3 3 4 5 11 7 1 3 4 6 10 2 16 9 8 4 5 6 4 3 7 8 5
4 2 4 4 1 6 3 4 5 4 3 4 5 3 2 5 7 6 5 4 4 5 8 4 3 7 7 8 1 11 12 13 15 7 17 16 22 19 14 7 1 3 2 6 9
3 4 3 3 3 3 1 4 2 3 3 4 3 8 8 4 3 7 6 4 6 6 3 5 5 4 12 15 13 20 21 17 16 14 7 5 10 20 15 9 7 7 3 6 11
6 5 2 4 3 5 4 5 6 4 7 6 6 5 9 8 10 7 6 3 7 3 4 2 5 2 17 17 12 15 18 17 18 17 13 14 20 11 8 5 8 11 9 10 10
1 2 3 5 4 4 7 7 5 4 6 5 8 3 8 16 15 17 13 10 8 6 6 4 2 2 8 6 11 10 18 18 10 8 13 14 20 3 6 9 13 13 9 9 9
Wind_Direction
36 33 25 30 17 17 16 14 9 4 3 357 355 355 353 346 335 18 43 340 335 342 334 309 340 347 26 279 160 155 93 188 213 167 233 209 62 211 244 125 351 81 67 324 138
34 31 29 23 17 10 8 7 3 360 358 356 351 348 348 344 334 52 350 351 344 346 0 2 341 346 308 264 231 142 164 205 194 193 227 207 156 291 112 126 211 127 52 121 145
27 24 23 19 17 12 4 1 357 355 353 350 349 344 339 348 39 1 342 345 350 346 322 271 279 267 245 176 221 182 204 194 209 200 230 218 249 173 149 226 217 188 155 160 160
24 18 16 12 11 8 2 358 356 351 345 343 341 342 334 338 20 337 341 344 348 346 7 358 9 28 226 206 218 200 248 204 195 180 145 208 148 208 201 238 125 232 158 167 180
18 13 11 8 3 1 357 349 345 345 339 335 336 349 8 28 1 330 336 347 4 4 25 1 36 351 249 319 303 197 250 209 269 177 191 134 224 229 242 249 296 139 160 175 189
19 13 6 1 357 354 350 340 336 336 333 331 340 13 39 34 312 334 330 352 18 15 358 24 2 278 310 293 327 321 287 272 250 246 255 186 240 153 254 206 135 168 193 189 184
13 11 1 354 351 344 339 330 327 328 332 340 22 74 37 112 337 324 358 321 353 345 6 331 311 36 349 311 350 313 317 327 208 200 227 153 265 213 220 185 206 195 197 204 200
360 358 353 349 345 338 330 323 325 338 331 355 82 70 239 277 294 342 342 328 343 353 297 268 283 323 252 312 346 284 145 241 228 152 220 171 250 219 214 185 227 212 201 205 210
356 353 349 348 346 342 330 329 347 20 47 104 38 71 343 336 27 315 333 312 312 331 318 270 226 177 34 62 343 281 223 229 313 211 175 197 240 225 201 193 222 220 210 208 218
355 350 350 353 355 347 334 354 32 29 351 40 81 43 8 318 299 318 291 325 332 333 18 33 17 88 82 197 223 254 233 261 230 336 241 231 243 271 251 194 219 219 214 205 208
349 351 352 357 5 3 356 12 14 358 38 60 291 270 313 300 284 322 333 358 356 44 40 357 67 200 209 228 248 260 273 294 311 305 302 246 243 249 248 234 233 238 233 219 210
321 335 351 354 11 23 42 64 73 215 326 302 278 276 262 273 327 326 351 55 36 53 347 16 241 295 298 309 289 278 268 271 283 264 306 294 265 253 246 232 221 224 229 229 229
310 312 341 355 22 38 74 50 308 131 23 308 286 303 293 286 323 289 10 6 53 38 58 174 260 326 314 321 310 267 267 265 259 292 306 263 262 248 245 229 232 230 225 224 223
309 307 356 334 62 307 44 335 45 84 69 313 344 344 324 300 279 254 295 143 21 37 282 225 272 265 291 246 174 247 188 263 288 229 239 64 285 233 222 228 225 225 218 225 226
308 110 71 57 148 69 296 336 27 55 43 303 303 297 316 339 302 360 301 19 253 239 92 264 265 248 255 226 184 228 36 320 274 260 280 246 277 269 178 230 234 222 222 215 223
142 125 101 41 44 87 340 48 54 42 290 327 317 348 356 343 323 315 12 30 70 293 254 254 302 230 215 205 158 337 339 339 297 297 241 224 212 205 208 229 219 229 223 216 213
128 100 61 75 60 342 66 48 37 97 325 303 305 351 328 314 326 16 319 327 270 21 338 313 219 263 156 212 219 224 126 264 202 209 238 167 201 239 253 344 195 251 240 223 209
119 90 49 53 3 28 50 50 69 235 237 307 295 325 33 358 355 327 327 336 1 165 268 327 327 192 185 211 183 191 194 183 194 203 264 131 227 258 242 271 238 207 300 239 190
108 29 61 354 360 46 71 56 196 203 217 292 325 45 319 343 100 357 11 255 253 47 330 301 268 279 200 181 162 226 218 250 322 249 252 239 267 295 10 313 344 345 30 256 298
96 72 37 313 31 59 75 220 199 202 218 219 205 139 232 278 20 41 6 235 269 180 359 276 292 249 278 161 233 219 182 206 212 230 240 241 249 235 247 242 262 250 194 130 97
64 67 319 347 60 51 152 219 233 230 192 194 228 270 233 261 182 253 240 278 228 297 251 253 226 287 41 215 186 186 226 240 285 245 264 299 251 274 255 266 235 258 164 171 126
98 57 318 34 53 88 178 200 220 239 150 244 241 239 219 190 227 244 224 214 238 236 298 238 296 270 233 249 261 254 215 209 222 239 244 247 259 144 314 295 284 77 78 58 78
102 140 55 80 141 259 290 281 262 207 205 170 222 211 196 234 263 211 217 240 208 200 186 252 286 333 328 352 351 219 235 234 234 269 248 251 276 339 40 341 336 203 134 118 95
102 65 334 53 63 133 152 255 281 218 238 195 209 106 187 240 231 265 238 271 175 209 268 241 220 200 224 221 169 288 272 254 249 222 245 243 265 261 271 275 79 351 120 123 115
64 235 187 226 266 110 128 167 235 266 242 215 246 192 187 238 245 231 246 252 252 243 179 167 231 229 262 270 263 260 263 253 253 245 250 266 258 266 246 218 190 154 176 155 135
138 145 122 127 158 148 216 245 203 252 166 250 220 192 182 213 206 243 228 234 231 211 199 192 262 245 285 264 267 264 258 250 238 245 243 255 267 257 277 133 156 163 174 169 168
156 61 120 166 159 134 220 219 215 178 241 213 214 203 214 231 238 247 255 255 238 192 210 223 210 348 267 312 314 295 236 223 224 209 221 229 245 124 228 219 179 164 163 171 159